Zurück zum Katalog

STARLINK-36805

AktivKommunikationSSO
NORAD 68116·PAYLOAD·🇺🇸 United States

Gestartet Mar 8, 2026 von Vandenberg Space Force Base

Loading…

Nächste Überflüge (nächste 24 Stunden)

TLE

AktuellSource: CelesTrak SupGP

Epoche: Sep 15, 2026, 03:00 UTC

1 68116C 26044R   26258.12548611  .00004723  00000+0  14665-3 0  2587
2 68116  97.2854 217.1680 0001615  91.8299 323.4134 15.33427931    14

Verfolge STARLINK-36805 in Echtzeit mit AllMySat

Download on the App Store